JBU1842 KATL-KBOS

Flight info

Callsign JBU1842
Flight time 1h 49m
Altitude 35000
Route PLMMR3 BURGG Q22 RBV Q419 JFK ROBUC3
Aircraft A21N/M-VGDW/C

Departure

Time 2026-05-07 23:28
Airport Hartsfield Jackson Atlanta International Airport (KATL)

Arrival

Time 2026-05-08 01:17
Airport Boston Logan International Airport (KBOS)
Time Latitude Longitude Altitude Speed Heading
2026-05-07 23:04 33.63897 -84.42982 1010 ft 0 kts 107°
2026-05-07 23:19 33.63902 -84.43002 1010 ft 5 kts 110°
2026-05-07 23:19 33.63931 -84.43043 1011 ft 4 kts 163°
2026-05-07 23:20 33.63938 -84.43046 1011 ft 0 kts 161°
2026-05-07 23:20 33.63928 -84.43048 1010 ft 4 kts 185°
2026-05-07 23:21 33.63906 -84.43053 1010 ft 2 kts 190°
2026-05-07 23:21 33.63901 -84.43054 1010 ft 0 kts 190°
2026-05-07 23:22 33.63878 -84.43058 1009 ft 10 kts 188°
2026-05-07 23:22 33.63777 -84.43066 1007 ft 14 kts 181°
2026-05-07 23:22 33.63694 -84.43054 1008 ft 10 kts 158°
2026-05-07 23:22 33.63664 -84.42982 1007 ft 12 kts 96°
2026-05-07 23:23 33.63663 -84.42873 1006 ft 14 kts 89°
2026-05-07 23:23 33.63662 -84.42753 1008 ft 14 kts 94°
2026-05-07 23:23 33.63655 -84.42634 1009 ft 15 kts 94°
2026-05-07 23:23 33.63657 -84.42547 1008 ft 16 kts 88°
2026-05-07 23:24 33.63666 -84.42343 1006 ft 20 kts 88°
2026-05-07 23:24 33.63663 -84.42174 1006 ft 21 kts 90°
2026-05-07 23:24 33.63663 -84.42052 1003 ft 23 kts 90°
2026-05-07 23:24 33.63647 -84.41843 997 ft 27 kts 91°
2026-05-07 23:25 33.63655 -84.41647 994 ft 21 kts 86°
2026-05-07 23:25 33.63655 -84.41456 993 ft 16 kts 90°
2026-05-07 23:25 33.63654 -84.41354 989 ft 12 kts 90°
2026-05-07 23:25 33.63656 -84.41247 990 ft 13 kts 89°
2026-05-07 23:26 33.63657 -84.41136 989 ft 14 kts 89°
2026-05-07 23:26 33.63657 -84.41011 988 ft 16 kts 93°
2026-05-07 23:26 33.63596 -84.40914 993 ft 13 kts 165°
2026-05-07 23:26 33.63527 -84.40906 990 ft 7 kts 179°
2026-05-07 23:27 33.63473 -84.40993 991 ft 25 kts 270°
2026-05-07 23:27 33.63489 -84.41503 993 ft 96 kts 267°
2026-05-07 23:27 33.63484 -84.42585 1007 ft 161 kts 271°
2026-05-07 23:28 33.63465 -84.44122 1501 ft 189 kts 272°
2026-05-07 23:28 33.63433 -84.45601 2834 ft 174 kts 269°
2026-05-07 23:28 33.63339 -84.47148 3411 ft 198 kts 248°
2026-05-07 23:28 33.62713 -84.48662 3957 ft 215 kts 243°
2026-05-07 23:29 33.62008 -84.50379 4462 ft 242 kts 245°
2026-05-07 23:29 33.61291 -84.52271 5302 ft 250 kts 246°
2026-05-07 23:29 33.60563 -84.54115 6550 ft 246 kts 245°
2026-05-07 23:29 33.59764 -84.55955 7504 ft 252 kts 237°
2026-05-07 23:30 33.58496 -84.57449 8520 ft 258 kts 219°
2026-05-07 23:30 33.56842 -84.58324 9435 ft 272 kts 199°
2026-05-07 23:30 33.54892 -84.58497 10296 ft 285 kts 187°
2026-05-07 23:30 33.52896 -84.58464 10965 ft 296 kts 187°
2026-05-07 23:31 33.50743 -84.58322 11375 ft 324 kts 175°
2026-05-07 23:31 33.48565 -84.57236 11837 ft 359 kts 153°
2026-05-07 23:31 33.46728 -84.55057 12288 ft 393 kts 127°
2026-05-07 23:31 33.45663 -84.51921 12718 ft 421 kts 102°
2026-05-07 23:32 33.45415 -84.48379 13247 ft 437 kts 90°
2026-05-07 23:32 33.45522 -84.44700 14149 ft 441 kts 86°
2026-05-07 23:32 33.45691 -84.40978 14806 ft 449 kts 88°
2026-05-07 23:32 33.45790 -84.37251 15522 ft 455 kts 83°
2026-05-07 23:33 33.46602 -84.33595 16233 ft 455 kts 62°
2026-05-07 23:33 33.48262 -84.30445 16887 ft 450 kts 43°
2026-05-07 23:33 33.50408 -84.27687 17568 ft 453 kts 39°
2026-05-07 23:33 33.52649 -84.24977 18247 ft 458 kts 38°
2026-05-07 23:34 33.54929 -84.22272 18841 ft 464 kts 38°
2026-05-07 23:34 33.57209 -84.19499 19453 ft 469 kts 39°
2026-05-07 23:34 33.59475 -84.16690 20029 ft 473 kts 39°
2026-05-07 23:34 33.61782 -84.13865 20623 ft 477 kts 38°
2026-05-07 23:35 33.64140 -84.11004 21193 ft 481 kts 38°
2026-05-07 23:35 33.66491 -84.08135 21766 ft 486 kts 38°
2026-05-07 23:35 33.68844 -84.05242 22343 ft 490 kts 38°
2026-05-07 23:35 33.71247 -84.02292 22905 ft 494 kts 38°
2026-05-07 23:36 33.73672 -83.99324 23452 ft 498 kts 38°
2026-05-07 23:36 33.76118 -83.96326 23920 ft 502 kts 38°
2026-05-07 23:36 33.78540 -83.93347 24358 ft 506 kts 38°
2026-05-07 23:36 33.81016 -83.90298 24834 ft 509 kts 38°
2026-05-07 23:37 33.83513 -83.87227 25267 ft 513 kts 38°
2026-05-07 23:37 33.86016 -83.84147 25698 ft 516 kts 38°
2026-05-07 23:37 33.88519 -83.81061 26101 ft 520 kts 38°
2026-05-07 23:37 33.91071 -83.77909 26517 ft 523 kts 38°
2026-05-07 23:38 33.93592 -83.74795 26924 ft 527 kts 38°
2026-05-07 23:38 33.96078 -83.71467 27308 ft 538 kts 46°
2026-05-07 23:38 33.98338 -83.67817 27699 ft 543 kts 48°
2026-05-07 23:38 34.00534 -83.64135 28206 ft 543 kts 48°
2026-05-07 23:39 34.02776 -83.60452 28780 ft 541 kts 47°
2026-05-07 23:39 34.05011 -83.56877 29283 ft 541 kts 46°
2026-05-07 23:39 34.07281 -83.53209 29763 ft 541 kts 47°
2026-05-07 23:39 34.09482 -83.49571 30225 ft 542 kts 47°
2026-05-07 23:40 34.11719 -83.45878 30618 ft 541 kts 47°
2026-05-07 23:40 34.13949 -83.42251 31017 ft 541 kts 46°
2026-05-07 23:40 34.16203 -83.38589 31397 ft 541 kts 47°
2026-05-07 23:40 34.18442 -83.34902 31777 ft 542 kts 47°
2026-05-07 23:41 34.20646 -83.31259 32149 ft 541 kts 47°
2026-05-07 23:41 34.22889 -83.27578 32535 ft 540 kts 47°
2026-05-07 23:41 34.25104 -83.23952 32863 ft 541 kts 47°
2026-05-07 23:41 34.27340 -83.20270 33193 ft 541 kts 47°
2026-05-07 23:42 34.29551 -83.16612 33542 ft 540 kts 47°
2026-05-07 23:42 34.31778 -83.12935 33883 ft 540 kts 46°
2026-05-07 23:42 34.33993 -83.09319 34147 ft 540 kts 46°
2026-05-07 23:42 34.36252 -83.05663 34431 ft 539 kts 46°
2026-05-07 23:43 34.38502 -83.01989 34658 ft 540 kts 46°
2026-05-07 23:43 34.40720 -82.98333 34878 ft 541 kts 46°
2026-05-07 23:43 34.45256 -82.90910 34903 ft 553 kts 46°
2026-05-07 23:44 34.49860 -82.83335 34915 ft 567 kts 47°
2026-05-07 23:44 34.54600 -82.75529 34916 ft 577 kts 47°
2026-05-07 23:45 34.59346 -82.67689 34911 ft 578 kts 47°
2026-05-07 23:45 34.64096 -82.59831 34907 ft 578 kts 47°
2026-05-07 23:46 34.68831 -82.51948 34898 ft 580 kts 48°
2026-05-07 23:46 34.73498 -82.43895 34902 ft 581 kts 48°
2026-05-07 23:47 34.78218 -82.35918 34901 ft 582 kts 48°
2026-05-07 23:47 34.82892 -82.27872 34905 ft 583 kts 48°
2026-05-07 23:48 34.87588 -82.19855 34894 ft 584 kts 48°
2026-05-07 23:48 34.92276 -82.11785 34899 ft 585 kts 48°
2026-05-07 23:49 34.97005 -82.03649 34913 ft 586 kts 48°
2026-05-07 23:49 35.01709 -81.95531 34907 ft 588 kts 48°
2026-05-07 23:50 35.06579 -81.87578 34897 ft 586 kts 45°
2026-05-07 23:50 35.11458 -81.79572 34904 ft 586 kts 46°
2026-05-07 23:51 35.16402 -81.71677 34920 ft 586 kts 45°
2026-05-07 23:51 35.21295 -81.63693 34931 ft 587 kts 46°
2026-05-07 23:52 35.26214 -81.55741 34932 ft 588 kts 45°
2026-05-07 23:52 35.31137 -81.47718 34924 ft 590 kts 45°
2026-05-07 23:53 35.36064 -81.39681 34902 ft 591 kts 45°
2026-05-07 23:53 35.41004 -81.31615 34919 ft 593 kts 45°
2026-05-07 23:54 35.45936 -81.23523 34932 ft 593 kts 45°
2026-05-07 23:54 35.50906 -81.15376 34935 ft 594 kts 45°
2026-05-07 23:55 35.55825 -81.07266 34928 ft 596 kts 45°
2026-05-07 23:55 35.60809 -80.99054 34943 ft 599 kts 45°
2026-05-07 23:56 35.65768 -80.90843 34956 ft 599 kts 45°
2026-05-07 23:56 35.70737 -80.82613 34949 ft 600 kts 45°
2026-05-07 23:57 35.75691 -80.74374 34937 ft 600 kts 45°
2026-05-07 23:57 35.80679 -80.66071 34923 ft 600 kts 45°
2026-05-07 23:58 35.85610 -80.57835 34919 ft 600 kts 45°
2026-05-07 23:58 35.90571 -80.49536 34934 ft 603 kts 45°
2026-05-07 23:59 35.95536 -80.41202 34939 ft 602 kts 45°
2026-05-07 23:59 36.00506 -80.32856 34944 ft 601 kts 44°
2026-05-08 00:00 36.05467 -80.24535 34913 ft 601 kts 44°
2026-05-08 00:00 36.10394 -80.16225 34923 ft 601 kts 44°
2026-05-08 00:01 36.15335 -80.07892 34922 ft 601 kts 45°
2026-05-08 00:01 36.20264 -79.99544 34921 ft 601 kts 45°
2026-05-08 00:02 36.25181 -79.91210 34920 ft 601 kts 45°
2026-05-08 00:02 36.30097 -79.82845 34955 ft 600 kts 45°
2026-05-08 00:03 36.35031 -79.74441 34952 ft 601 kts 45°
2026-05-08 00:03 36.39931 -79.66064 34949 ft 600 kts 45°
2026-05-08 00:04 36.44811 -79.57709 34939 ft 600 kts 45°
2026-05-08 00:04 36.49728 -79.49263 34948 ft 601 kts 45°
2026-05-08 00:05 36.54597 -79.40885 34952 ft 602 kts 45°
2026-05-08 00:05 36.59490 -79.32439 34948 ft 602 kts 45°
2026-05-08 00:06 36.64390 -79.23964 34948 ft 602 kts 45°
2026-05-08 00:06 36.68456 -79.16915 34947 ft 603 kts 45°
2026-05-08 00:07 36.73340 -79.08426 34934 ft 603 kts 45°
2026-05-08 00:07 36.78232 -78.99902 34926 ft 603 kts 45°
2026-05-08 00:08 36.83098 -78.91406 34931 ft 602 kts 45°
2026-05-08 00:08 36.87955 -78.82829 34933 ft 603 kts 46°
2026-05-08 00:09 36.92796 -78.74271 34945 ft 602 kts 46°
2026-05-08 00:09 36.97609 -78.65743 34941 ft 602 kts 46°
2026-05-08 00:10 37.02440 -78.57154 34945 ft 603 kts 46°
2026-05-08 00:10 37.07246 -78.48598 34940 ft 603 kts 46°
2026-05-08 00:11 37.12058 -78.39994 34939 ft 604 kts 46°
2026-05-08 00:11 37.16874 -78.31378 34937 ft 603 kts 46°
2026-05-08 00:12 37.21485 -78.22535 34951 ft 611 kts 53°
2026-05-08 00:12 37.25588 -78.13166 34941 ft 612 kts 54°
2026-05-08 00:13 37.29745 -78.03882 34941 ft 611 kts 53°
2026-05-08 00:13 37.33864 -77.94502 34941 ft 611 kts 54°
2026-05-08 00:14 37.37991 -77.85171 34951 ft 610 kts 53°
2026-05-08 00:14 37.42081 -77.75847 34953 ft 610 kts 54°
2026-05-08 00:15 37.46179 -77.66494 34952 ft 610 kts 54°
2026-05-08 00:15 37.50265 -77.57148 34952 ft 610 kts 54°
2026-05-08 00:16 37.54326 -77.47811 34947 ft 608 kts 54°
2026-05-08 00:16 37.58397 -77.38452 34942 ft 607 kts 54°
2026-05-08 00:17 37.62416 -77.29159 34943 ft 607 kts 54°
2026-05-08 00:17 37.66459 -77.19821 34942 ft 605 kts 54°
2026-05-08 00:18 37.68814 -77.15478 34972 ft 587 kts 39°
2026-05-08 00:18 37.71694 -77.11987 34951 ft 568 kts 26°
2026-05-08 00:18 37.74966 -77.09313 34958 ft 548 kts 16°
2026-05-08 00:18 37.78292 -77.07013 34946 ft 547 kts 15°
2026-05-08 00:19 37.84969 -77.02434 34954 ft 547 kts 16°
2026-05-08 00:19 37.91637 -76.97776 34952 ft 546 kts 17°
2026-05-08 00:20 37.98298 -76.93170 34949 ft 545 kts 17°
2026-05-08 00:20 38.04957 -76.88512 34941 ft 544 kts 17°
2026-05-08 00:21 38.11588 -76.83896 34938 ft 543 kts 17°
2026-05-08 00:21 38.18185 -76.79274 34929 ft 542 kts 18°
2026-05-08 00:22 38.24753 -76.74519 34919 ft 552 kts 26°
2026-05-08 00:22 38.30723 -76.68173 34917 ft 562 kts 32°
2026-05-08 00:23 38.36665 -76.61744 34919 ft 560 kts 31°
2026-05-08 00:23 38.42629 -76.55292 34920 ft 561 kts 32°
2026-05-08 00:24 38.48577 -76.48904 34919 ft 559 kts 31°
2026-05-08 00:24 38.54536 -76.42518 34924 ft 560 kts 32°
2026-05-08 00:25 38.60508 -76.36062 34921 ft 560 kts 31°
2026-05-08 00:25 38.66443 -76.29673 34916 ft 560 kts 32°
2026-05-08 00:26 38.72384 -76.23227 34910 ft 560 kts 32°
2026-05-08 00:26 38.78341 -76.16781 34918 ft 560 kts 32°
2026-05-08 00:27 38.84281 -76.10312 34912 ft 560 kts 32°
2026-05-08 00:27 38.90249 -76.03818 34911 ft 561 kts 32°
2026-05-08 00:28 38.96152 -75.97343 34915 ft 563 kts 34°
2026-05-08 00:28 39.01905 -75.90487 34907 ft 563 kts 34°
2026-05-08 00:29 39.07681 -75.83662 34888 ft 565 kts 35°
2026-05-08 00:29 39.13421 -75.76759 34881 ft 565 kts 35°
2026-05-08 00:30 39.19210 -75.69870 34880 ft 566 kts 35°
2026-05-08 00:30 39.24952 -75.62951 34880 ft 566 kts 35°
2026-05-08 00:31 39.30724 -75.56031 34881 ft 566 kts 35°
2026-05-08 00:31 39.36494 -75.49060 34876 ft 567 kts 35°
2026-05-08 00:32 39.42252 -75.42113 34875 ft 567 kts 35°
2026-05-08 00:32 39.48015 -75.35127 34875 ft 568 kts 35°
2026-05-08 00:33 39.53786 -75.28122 34874 ft 568 kts 35°
2026-05-08 00:33 39.59544 -75.21115 34874 ft 568 kts 36°
2026-05-08 00:34 39.65301 -75.14092 34869 ft 568 kts 36°
2026-05-08 00:34 39.71168 -75.07321 34868 ft 565 kts 33°
2026-05-08 00:35 39.77085 -75.00591 34871 ft 565 kts 33°
2026-05-08 00:35 39.83041 -74.93918 34866 ft 565 kts 33°
2026-05-08 00:36 39.88948 -74.87198 34872 ft 565 kts 33°
2026-05-08 00:36 39.95231 -74.81224 34866 ft 556 kts 26°
2026-05-08 00:37 40.01553 -74.75409 34869 ft 558 kts 27°
2026-05-08 00:37 40.04554 -74.72111 34889 ft 570 kts 40°
2026-05-08 00:38 40.09919 -74.64381 34870 ft 573 kts 42°
2026-05-08 00:38 40.15278 -74.56674 34879 ft 572 kts 41°
2026-05-08 00:39 40.20645 -74.49108 34866 ft 566 kts 33°
2026-05-08 00:39 40.26691 -74.42624 34874 ft 561 kts 31°
2026-05-08 00:40 40.32766 -74.36137 34882 ft 562 kts 32°
2026-05-08 00:40 40.38814 -74.29639 34877 ft 561 kts 31°
2026-05-08 00:41 40.44883 -74.23137 34874 ft 562 kts 32°
2026-05-08 00:41 40.50824 -74.16706 34449 ft 547 kts 32°
2026-05-08 00:41 40.53129 -74.13876 34072 ft 549 kts 44°
2026-05-08 00:42 40.55336 -74.09742 33628 ft 550 kts 58°
2026-05-08 00:42 40.56795 -74.05155 33090 ft 553 kts 70°
2026-05-08 00:42 40.57935 -74.00377 32449 ft 552 kts 72°
2026-05-08 00:42 40.59020 -73.95530 31814 ft 550 kts 72°
2026-05-08 00:43 40.60122 -73.90689 31186 ft 550 kts 71°
2026-05-08 00:43 40.61274 -73.85845 30566 ft 550 kts 71°
2026-05-08 00:43 40.62415 -73.81079 29980 ft 550 kts 69°
2026-05-08 00:43 40.64010 -73.76573 29305 ft 543 kts 53°
2026-05-08 00:44 40.66318 -73.72677 28655 ft 536 kts 43°
2026-05-08 00:44 40.68826 -73.68997 27978 ft 535 kts 42°
2026-05-08 00:44 40.71330 -73.65412 27324 ft 530 kts 42°
2026-05-08 00:44 40.73791 -73.61827 26830 ft 519 kts 43°
2026-05-08 00:45 40.76108 -73.58370 26862 ft 496 kts 43°
2026-05-08 00:45 40.78418 -73.54971 26877 ft 499 kts 42°
2026-05-08 00:45 40.80769 -73.51574 26875 ft 509 kts 43°
2026-05-08 00:45 40.83175 -73.48051 26874 ft 520 kts 43°
2026-05-08 00:46 40.85609 -73.44426 26877 ft 529 kts 44°
2026-05-08 00:46 40.88054 -73.40802 26876 ft 538 kts 43°
2026-05-08 00:46 40.90597 -73.37073 26869 ft 547 kts 43°
2026-05-08 00:46 40.93148 -73.33320 26867 ft 555 kts 44°
2026-05-08 00:47 40.95723 -73.29493 26861 ft 563 kts 44°
2026-05-08 00:47 40.98343 -73.25591 26859 ft 566 kts 44°
2026-05-08 00:47 41.00969 -73.21699 26608 ft 569 kts 44°
2026-05-08 00:47 41.03563 -73.17854 26066 ft 556 kts 44°
2026-05-08 00:48 41.06111 -73.14055 25496 ft 542 kts 44°
2026-05-08 00:48 41.08608 -73.10329 24948 ft 535 kts 45°
2026-05-08 00:48 41.11049 -73.06697 24414 ft 530 kts 45°
2026-05-08 00:48 41.13502 -73.03041 23880 ft 525 kts 45°
2026-05-08 00:49 41.15922 -72.99418 23337 ft 520 kts 45°
2026-05-08 00:49 41.18287 -72.95872 22819 ft 514 kts 45°
2026-05-08 00:49 41.20620 -72.92289 22861 ft 514 kts 50°
2026-05-08 00:49 41.22486 -72.88170 22875 ft 521 kts 62°
2026-05-08 00:50 41.24097 -72.83908 22862 ft 520 kts 63°
2026-05-08 00:50 41.25710 -72.79571 22860 ft 521 kts 63°
2026-05-08 00:50 41.27343 -72.75316 22860 ft 521 kts 62°
2026-05-08 00:50 41.29020 -72.71007 22857 ft 521 kts 62°
2026-05-08 00:51 41.30112 -72.68154 22863 ft 521 kts 63°
2026-05-08 00:51 41.32266 -72.62426 22880 ft 521 kts 63°
2026-05-08 00:51 41.33352 -72.59553 22874 ft 521 kts 63°
2026-05-08 00:51 41.35013 -72.55207 22880 ft 521 kts 63°
2026-05-08 00:52 41.36643 -72.50937 22848 ft 515 kts 63°
2026-05-08 00:52 41.38244 -72.46697 21763 ft 512 kts 63°
2026-05-08 00:52 41.39825 -72.42489 20901 ft 507 kts 63°
2026-05-08 00:52 41.41392 -72.38339 20863 ft 497 kts 63°
2026-05-08 00:53 41.42960 -72.34193 20872 ft 507 kts 63°
2026-05-08 00:53 41.44524 -72.30039 20862 ft 504 kts 64°
2026-05-08 00:53 41.46101 -72.25830 20864 ft 507 kts 64°
2026-05-08 00:53 41.47690 -72.21592 20852 ft 506 kts 63°
2026-05-08 00:54 41.49241 -72.17440 20846 ft 501 kts 64°
2026-05-08 00:54 41.50755 -72.13294 19908 ft 496 kts 65°
2026-05-08 00:54 41.52260 -72.09116 18989 ft 496 kts 65°
2026-05-08 00:54 41.53723 -72.05108 18905 ft 472 kts 64°
2026-05-08 00:55 41.55138 -72.01268 18889 ft 448 kts 64°
2026-05-08 00:55 41.56349 -71.97517 18699 ft 432 kts 70°
2026-05-08 00:55 41.57439 -71.93819 17976 ft 433 kts 70°
2026-05-08 00:55 41.58572 -71.90075 17413 ft 427 kts 69°
2026-05-08 00:56 41.59671 -71.86460 16904 ft 420 kts 69°
2026-05-08 00:56 41.60740 -71.82847 16349 ft 415 kts 69°
2026-05-08 00:56 41.61790 -71.79238 15826 ft 409 kts 69°
2026-05-08 00:56 41.62813 -71.75767 15314 ft 404 kts 68°
2026-05-08 00:57 41.63851 -71.72278 14819 ft 398 kts 68°
2026-05-08 00:57 41.64853 -71.68879 14304 ft 393 kts 68°
2026-05-08 00:57 41.65849 -71.65473 13827 ft 388 kts 68°
2026-05-08 00:57 41.66832 -71.62121 13310 ft 382 kts 67°
2026-05-08 00:58 41.67788 -71.58870 12802 ft 376 kts 67°
2026-05-08 00:58 41.68738 -71.55629 12291 ft 371 kts 67°
2026-05-08 00:58 41.69664 -71.52462 11809 ft 365 kts 67°
2026-05-08 00:58 41.70583 -71.49312 11312 ft 359 kts 67°
2026-05-08 00:59 41.71464 -71.46294 11030 ft 347 kts 67°
2026-05-08 00:59 41.72366 -71.43271 11066 ft 356 kts 63°
2026-05-08 00:59 41.73538 -71.40420 11066 ft 349 kts 57°
2026-05-08 00:59 41.74768 -71.37615 11031 ft 351 kts 57°
2026-05-08 01:00 41.75952 -71.34836 10990 ft 337 kts 58°
2026-05-08 01:00 41.77105 -71.32103 10995 ft 335 kts 58°
2026-05-08 01:00 41.78266 -71.29387 10991 ft 334 kts 57°
2026-05-08 01:00 41.79411 -71.26719 10988 ft 332 kts 57°
2026-05-08 01:01 41.80551 -71.24043 10984 ft 333 kts 58°
2026-05-08 01:01 41.81699 -71.21339 10972 ft 332 kts 58°
2026-05-08 01:01 41.82850 -71.18633 10976 ft 333 kts 58°
2026-05-08 01:01 41.83988 -71.15959 10979 ft 331 kts 58°
2026-05-08 01:02 41.85121 -71.13288 10982 ft 326 kts 58°
2026-05-08 01:02 41.86234 -71.10669 10975 ft 323 kts 57°
2026-05-08 01:02 41.87369 -71.08059 10979 ft 323 kts 57°
2026-05-08 01:02 41.88496 -71.05475 10983 ft 322 kts 57°
2026-05-08 01:03 41.89613 -71.02886 10987 ft 322 kts 57°
2026-05-08 01:03 41.90734 -71.00277 10987 ft 322 kts 57°
2026-05-08 01:03 41.91862 -70.97664 10989 ft 322 kts 57°
2026-05-08 01:03 41.92984 -70.95062 10983 ft 321 kts 57°
2026-05-08 01:04 41.94091 -70.92487 10985 ft 322 kts 57°
2026-05-08 01:04 41.95208 -70.89887 10829 ft 316 kts 57°
2026-05-08 01:04 41.96317 -70.87307 10251 ft 317 kts 57°
2026-05-08 01:04 41.97400 -70.84784 9917 ft 311 kts 57°
2026-05-08 01:05 41.98478 -70.82269 9474 ft 307 kts 57°
2026-05-08 01:05 41.99529 -70.79817 9031 ft 303 kts 58°
2026-05-08 01:05 42.00577 -70.77370 8603 ft 299 kts 57°
2026-05-08 01:05 42.01788 -70.75119 8165 ft 293 kts 45°
2026-05-08 01:06 42.03137 -70.73155 7941 ft 281 kts 44°
2026-05-08 01:06 42.04493 -70.71168 7974 ft 292 kts 45°
2026-05-08 01:06 42.05811 -70.69167 7960 ft 288 kts 46°
2026-05-08 01:06 42.07166 -70.67119 7950 ft 288 kts 45°
2026-05-08 01:07 42.08489 -70.65142 7976 ft 288 kts 45°
2026-05-08 01:07 42.09849 -70.63180 7994 ft 284 kts 40°
2026-05-08 01:07 42.11450 -70.61542 7904 ft 290 kts 29°
2026-05-08 01:07 42.13186 -70.60153 7337 ft 291 kts 27°
2026-05-08 01:08 42.14962 -70.58831 6737 ft 294 kts 26°
2026-05-08 01:08 42.16763 -70.57531 6140 ft 295 kts 26°
2026-05-08 01:08 42.18573 -70.56246 5504 ft 291 kts 26°
2026-05-08 01:08 42.20356 -70.54974 4879 ft 285 kts 25°
2026-05-08 01:09 42.22121 -70.53931 4257 ft 273 kts
2026-05-08 01:09 42.23934 -70.54173 3681 ft 256 kts 332°
2026-05-08 01:09 42.25367 -70.55462 3113 ft 248 kts 319°
2026-05-08 01:09 42.26629 -70.56981 2980 ft 241 kts 316°
2026-05-08 01:10 42.27846 -70.58499 2979 ft 228 kts 316°
2026-05-08 01:10 42.28976 -70.59916 2983 ft 222 kts 316°
2026-05-08 01:10 42.30092 -70.61323 2981 ft 217 kts 316°
2026-05-08 01:10 42.31211 -70.62734 2981 ft 217 kts 316°
2026-05-08 01:11 42.32301 -70.64107 2992 ft 218 kts 316°
2026-05-08 01:11 42.33406 -70.65497 2987 ft 217 kts 316°
2026-05-08 01:11 42.34514 -70.66892 3008 ft 215 kts 315°
2026-05-08 01:11 42.35591 -70.68244 2980 ft 209 kts 316°
2026-05-08 01:12 42.36649 -70.69567 2978 ft 207 kts 316°
2026-05-08 01:12 42.37679 -70.70911 2970 ft 204 kts 308°
2026-05-08 01:12 42.38170 -70.72688 2981 ft 204 kts 279°
2026-05-08 01:12 42.38289 -70.74597 2981 ft 205 kts 275°
2026-05-08 01:13 42.38399 -70.76565 2679 ft 209 kts 276°
2026-05-08 01:13 42.38512 -70.78495 2323 ft 206 kts 276°
2026-05-08 01:13 42.38616 -70.80424 1981 ft 201 kts 276°
2026-05-08 01:13 42.38723 -70.82198 1985 ft 181 kts 273°
2026-05-08 01:14 42.38601 -70.83830 1990 ft 171 kts 262°
2026-05-08 01:14 42.38366 -70.85365 1991 ft 163 kts 261°
2026-05-08 01:14 42.38116 -70.86870 1834 ft 159 kts 260°
2026-05-08 01:14 42.37867 -70.88270 1619 ft 150 kts 261°
2026-05-08 01:15 42.37629 -70.89622 1407 ft 144 kts 261°
2026-05-08 01:15 42.37397 -70.90942 1220 ft 144 kts 260°
2026-05-08 01:15 42.37165 -70.92254 1023 ft 145 kts 259°
2026-05-08 01:15 42.36930 -70.93592 831 ft 148 kts 258°
2026-05-08 01:16 42.36690 -70.94944 636 ft 146 kts 258°
2026-05-08 01:16 42.36461 -70.96250 432 ft 144 kts 259°
2026-05-08 01:16 42.36228 -70.97594 241 ft 147 kts 259°
2026-05-08 01:16 42.35986 -70.98952 46 ft 148 kts 259°
2026-05-08 01:17 42.35778 -71.00179 27 ft 103 kts 258°
2026-05-08 01:17 42.35674 -71.00774 24 ft 51 kts 256°
2026-05-08 01:17 42.35647 -71.01107 30 ft 25 kts 287°
2026-05-08 01:17 42.35720 -71.01258 28 ft 10 kts 306°
2026-05-08 01:18 42.35743 -71.01316 25 ft 3 kts 292°
2026-05-08 01:18 42.35744 -71.01321 25 ft 0 kts 292°
2026-05-08 01:20 42.35751 -71.01342 28 ft 5 kts 292°
2026-05-08 01:21 42.35775 -71.01431 27 ft 17 kts 290°
2026-05-08 01:21 42.35840 -71.01558 28 ft 13 kts 345°
2026-05-08 01:21 42.35914 -71.01536 27 ft 10 kts 20°
2026-05-08 01:21 42.35979 -71.01504 27 ft 10 kts 21°
2026-05-08 01:22 42.36072 -71.01457 26 ft 14 kts 15°
2026-05-08 01:22 42.36147 -71.01429 27 ft 9 kts 13°
2026-05-08 01:22 42.36219 -71.01393 26 ft 20 kts 26°
2026-05-08 01:22 42.36386 -71.01315 25 ft 25 kts 14°
2026-05-08 01:23 42.36528 -71.01243 23 ft 19 kts 20°
2026-05-08 01:23 42.36593 -71.01266 26 ft 6 kts 298°
2026-05-08 01:23 42.36604 -71.01320 25 ft 6 kts 281°
2026-05-08 01:23 42.36609 -71.01368 23 ft 4 kts 281°
2026-05-08 01:24 42.36609 -71.01370 23 ft 0 kts 281°